Simultaneous Nadir Overpasses (SNOs) Predictions

Prediction of SNOs between GOES-17 and TERRA Satellite Orbit:

Table of predicted SNOs for the next 14.0 days since TLE Epoch: 10/30/2021
Index Date Time (GOES-17) GOES-17 Lat,Lon TERRA Lat,Lon Distance(km) Time Diff (sec)
1 10/31/2021 07:38:02 0.04,-137.22 -0.11,-137.83 69.79 80
2 11/02/2021 07:23:09 0.04,-137.21 0.53,-134.87 265.33 80
3 11/02/2021 19:44:24 -0.04,-137.22 0.58,-140.03 320.62 80
4 11/04/2021 19:34:51 -0.04,-137.20 -0.07,-137.08 13.56 80
5 11/06/2021 19:22:37 -0.04,-137.17 -0.66,-134.12 346.83 80
6 11/07/2021 07:44:01 0.04,-137.16 -0.42,-139.31 245.30 80
7 11/09/2021 07:29:07 0.03,-137.12 0.18,-136.35 87.01 80
8 11/09/2021 19:50:22 -0.03,-137.12 0.92,-141.51 499.79 80
9 11/11/2021 07:16:53 0.02,-137.08 0.78,-133.39 418.95 80
10 11/11/2021 19:38:08 -0.02,-137.08 0.31,-138.55 167.89 80
